When you browse on this site, cookies collect data to enhance your experience and personalize the content and advertising you see.
Visit our Privacy Policy to learn more. By continuing to use the site, you agree to this use of cookies and data.
  • în România
  • Lista ţărilor
  • Pe 7 zile
  • Temperatura apei
  • Hartă satelitară
  • Meteo pe hartă
  • Widget-uri
  • user-avatar
    Intrare

    Meteo pe oră la Nasirijja

    Astăzi, 20 Ianuarie, Duminică

    Timp Temperatura Precipitaţii Vânt Presiune Umiditate
    00:00 +9°C° 0 mm 2 m/s 768 mmHg 31%
    01:00 +9°C° 0 mm 3 m/s 768 mmHg 32%
    02:00 +8°C° 0 mm 3 m/s 768 mmHg 33%
    03:00 +8°C° 0 mm 3 m/s 768 mmHg 33%
    04:00 +7°C° 0 mm 3 m/s 768 mmHg 35%
    05:00 +7°C° 0 mm 3 m/s 768 mmHg 36%
    06:00 +7°C° 0 mm 3 m/s 768 mmHg 37%
    07:00 +8°C° 0 mm 3 m/s 768 mmHg 36%
    08:00 +8°C° 0 mm 3 m/s 769 mmHg 35%
    09:00 +8°C° 0 mm 4 m/s 769 mmHg 34%
    10:00 +11°C° 0 mm 4 m/s 769 mmHg 31%
    11:00 +12°C° 0 mm 4 m/s 769 mmHg 29%
    12:00 +13°C° 0 mm 4 m/s 768 mmHg 27%
    13:00 +13°C° 0 mm 4 m/s 768 mmHg 25%
    14:00 +14°C° 0 mm 4 m/s 767 mmHg 24%
    15:00 +14°C° 0 mm 4 m/s 767 mmHg 25%
    16:00 +13°C° 0 mm 3 m/s 767 mmHg 27%
    17:00 +13°C° 0 mm 3 m/s 767 mmHg 28%
    18:00 +14°C° 0 mm 2 m/s 767 mmHg 30%
    19:00 +13°C° 0 mm 2 m/s 767 mmHg 31%
    20:00 +13°C° 0 mm 2 m/s 767 mmHg 32%
    21:00 +12°C° 0 mm 2 m/s 767 mmHg 33%
    22:00 +12°C° 0 mm 2 m/s 767 mmHg 34%
    23:00 +10°C° 0 mm 2 m/s 767 mmHg 35%

    Mâine, 21 Ianuarie, Luni

    Timp Temperatura Precipitaţii Vânt Presiune Umiditate
    00:00 +10°C° 0 mm 2 m/s 767 mmHg 36%
    01:00 +10°C° 0 mm 2 m/s 767 mmHg 36%
    02:00 +10°C° 0 mm 2 m/s 767 mmHg 37%
    03:00 +9°C° 0 mm 2 m/s 767 mmHg 37%
    04:00 +9°C° 0 mm 2 m/s 767 mmHg 38%
    05:00 +9°C° 0 mm 2 m/s 767 mmHg 38%
    06:00 +9°C° 0 mm 2 m/s 767 mmHg 39%
    07:00 +10°C° 0 mm 2 m/s 767 mmHg 37%
    08:00 +11°C° 0 mm 1 m/s 767 mmHg 36%
    09:00 +12°C° 0 mm 1 m/s 767 mmHg 34%
    10:00 +13°C° 0 mm 1 m/s 767 mmHg 31%
    11:00 +14°C° 0 mm 2 m/s 766 mmHg 28%
    12:00 +15°C° 0 mm 2 m/s 766 mmHg 26%
    13:00 +16°C° 0 mm 2 m/s 766 mmHg 24%
    14:00 +16°C° 0 mm 2 m/s 765 mmHg 23%
    15:00 +17°C° 0 mm 2 m/s 764 mmHg 21%
    16:00 +16°C° 0 mm 2 m/s 764 mmHg 22%
    17:00 +16°C° 0 mm 2 m/s 764 mmHg 23%
    18:00 +16°C° 0 mm 1 m/s 764 mmHg 24%
    19:00 +15°C° 0 mm 2 m/s 764 mmHg 25%
    20:00 +15°C° 0 mm 2 m/s 764 mmHg 26%
    21:00 +14°C° 0 mm 2 m/s 764 mmHg 27%
    22:00 +14°C° 0 mm 2 m/s 764 mmHg 28%
    23:00 +13°C° 0 mm 2 m/s 764 mmHg 28%

    Poimâine, 22 Ianuarie, Marţi

    Timp Temperatura Precipitaţii Vânt Presiune Umiditate
    00:00 +13°C° 0 mm 2 m/s 764 mmHg 29%
    01:00 +12°C° 0 mm 2 m/s 764 mmHg 29%
    02:00 +12°C° 0 mm 2 m/s 764 mmHg 30%
    03:00 +12°C° 0 mm 2 m/s 764 mmHg 31%
    04:00 +10°C° 0 mm 2 m/s 764 mmHg 31%
    05:00 +10°C° 0 mm 2 m/s 764 mmHg 32%
    06:00 +9°C° 0 mm 2 m/s 764 mmHg 33%
    07:00 +10°C° 0 mm 2 m/s 764 mmHg 31%
    08:00 +12°C° 0 mm 2 m/s 764 mmHg 29%
    09:00 +13°C° 0 mm 1 m/s 765 mmHg 27%
    10:00 +14°C° 0 mm 2 m/s 764 mmHg 25%
    11:00 +16°C° 0 mm 2 m/s 764 mmHg 23%
    12:00 +17°C° 0 mm 2 m/s 764 mmHg 21%
    13:00 +17°C° 0 mm 3 m/s 764 mmHg 20%
    14:00 +18°C° 0 mm 3 m/s 763 mmHg 20%
    15:00 +18°C° 0 mm 3 m/s 763 mmHg 20%
    16:00 +18°C° 0 mm 3 m/s 763 mmHg 22%
    17:00 +17°C° 0 mm 2 m/s 763 mmHg 23%
    18:00 +16°C° 0 mm 2 m/s 763 mmHg 25%
    19:00 +16°C° 0 mm 2 m/s 763 mmHg 26%
    20:00 +15°C° 0 mm 2 m/s 763 mmHg 27%
    21:00 +15°C° 0 mm 2 m/s 764 mmHg 28%
    22:00 +14°C° 0 mm 2 m/s 764 mmHg 29%
    23:00 +14°C° 0 mm 2 m/s 764 mmHg 29%

    23 Ianuarie, Miercuri

    Timp Temperatura Precipitaţii Vânt Presiune Umiditate
    00:00 +14°C° 0 mm 2 m/s 764 mmHg 30%
    01:00 +13°C° 0 mm 2 m/s 764 mmHg 30%
    02:00 +13°C° 0 mm 2 m/s 763 mmHg 30%
    03:00 +12°C° 0 mm 2 m/s 763 mmHg 30%
    04:00 +12°C° 0 mm 2 m/s 763 mmHg 30%
    05:00 +12°C° 0 mm 2 m/s 764 mmHg 30%
    06:00 +10°C° 0 mm 2 m/s 764 mmHg 30%
    07:00 +12°C° 0 mm 2 m/s 764 mmHg 27%
    08:00 +13°C° 0 mm 2 m/s 765 mmHg 25%
    09:00 +14°C° 0 mm 1 m/s 765 mmHg 23%
    10:00 +16°C° 0 mm 2 m/s 765 mmHg 21%
    11:00 +17°C° 0 mm 2 m/s 765 mmHg 20%
    12:00 +18°C° 0 mm 2 m/s 765 mmHg 18%
    13:00 +19°C° 0 mm 2 m/s 764 mmHg 18%
    14:00 +19°C° 0 mm 2 m/s 764 mmHg 17%
    15:00 +20°C° 0 mm 3 m/s 763 mmHg 17%
    16:00 +19°C° 0 mm 2 m/s 764 mmHg 19%
    17:00 +18°C° 0 mm 2 m/s 764 mmHg 20%
    18:00 +18°C° 0 mm 2 m/s 764 mmHg 22%
    19:00 +18°C° 0 mm 1 m/s 764 mmHg 23%
    20:00 +16°C° 0 mm 1 m/s 765 mmHg 25%
    21:00 +16°C° 0 mm 1 m/s 765 mmHg 26%
    22:00 +15°C° 0 mm 1 m/s 765 mmHg 27%
    23:00 +15°C° 0 mm 1 m/s 765 mmHg 28%

    24 Ianuarie, Joi

    Timp Temperatura Precipitaţii Vânt Presiune Umiditate
    00:00 +14°C° 0 mm 1 m/s 765 mmHg 29%
    01:00 +14°C° 0 mm 1 m/s 765 mmHg 30%
    02:00 +14°C° 0 mm 1 m/s 765 mmHg 30%
    03:00 +13°C° 0 mm 1 m/s 765 mmHg 31%
    04:00 +13°C° 0 mm 1 m/s 765 mmHg 32%
    05:00 +13°C° 0 mm 1 m/s 765 mmHg 33%
    06:00 +12°C° 0 mm 1 m/s 765 mmHg 34%
    07:00 +14°C° 0 mm 1 m/s 766 mmHg 31%
    08:00 +15°C° 0 mm 1 m/s 766 mmHg 29%
    09:00 +16°C° 0 mm 1 m/s 766 mmHg 26%
    10:00 +19°C° 0 mm 1 m/s 766 mmHg 24%
    11:00 +20°C° 0 mm 1 m/s 766 mmHg 22%
    12:00 +21°C° 0 mm 1 m/s 765 mmHg 20%
    13:00 +22°C° 0 mm 1 m/s 765 mmHg 20%
    14:00 +22°C° 0 mm 1 m/s 764 mmHg 19%
    15:00 +23°C° 0 mm 2 m/s 764 mmHg 18%
    16:00 +21°C° 0 mm 2 m/s 764 mmHg 20%
    17:00 +20°C° 0 mm 2 m/s 764 mmHg 21%
    18:00 +20°C° 0 mm 3 m/s 764 mmHg 23%
    19:00 +19°C° 0 mm 3 m/s 764 mmHg 23%
    20:00 +19°C° 0 mm 3 m/s 764 mmHg 24%
    21:00 +18°C° 0 mm 3 m/s 764 mmHg 25%
    22:00 +18°C° 0 mm 3 m/s 764 mmHg 26%
    23:00 +17°C° 0 mm 3 m/s 764 mmHg 27%

    25 Ianuarie, Vineri

    Timp Temperatura Precipitaţii Vânt Presiune Umiditate
    00:00 +17°C° 0 mm 3 m/s 764 mmHg 28%
    01:00 +16°C° 0 mm 3 m/s 764 mmHg 29%
    02:00 +15°C° 0 mm 4 m/s 763 mmHg 30%
    03:00 +15°C° 0 mm 4 m/s 763 mmHg 30%
    04:00 +15°C° 0 mm 4 m/s 763 mmHg 31%
    05:00 +14°C° 0 mm 4 m/s 763 mmHg 33%
    06:00 +14°C° 0 mm 4 m/s 763 mmHg 34%
    07:00 +15°C° 0 mm 4 m/s 763 mmHg 33%
    08:00 +16°C° 0 mm 5 m/s 764 mmHg 32%
    09:00 +17°C° 0 mm 6 m/s 764 mmHg 31%
    10:00 +19°C° 0 mm 6 m/s 763 mmHg 30%
    11:00 +21°C° 0 mm 6 m/s 763 mmHg 28%
    12:00 +23°C° 0 mm 7 m/s 763 mmHg 26%
    13:00 +23°C° 0 mm 6 m/s 762 mmHg 26%
    14:00 +24°C° 0 mm 6 m/s 761 mmHg 27%
    15:00 +24°C° 0 mm 6 m/s 761 mmHg 27%
    16:00 +24°C° 0 mm 6 m/s 761 mmHg 29%
    17:00 +23°C° 0 mm 5 m/s 761 mmHg 32%
    18:00 +22°C° 0 mm 4 m/s 761 mmHg 35%
    19:00 +21°C° 0 mm 4 m/s 761 mmHg 38%
    20:00 +21°C° 0 mm 5 m/s 761 mmHg 41%
    21:00 +20°C° 0 mm 5 m/s 761 mmHg 44%
    22:00 +19°C° 0 mm 5 m/s 761 mmHg 48%
    23:00 +19°C° 0 mm 5 m/s 761 mmHg 51%
    Arată mai mult